Total_Precipitation_Accumulation
0.09 0.24 0.50 0.85 1.56 1.67 1.14 0.70 0.56 0.44 0.42 0.39 0.39 0.38 0.47 0.70 1.08 1.57 0.97 0.53 0.47 0.62 0.78 0.99 1.21 1.12 1.09 1.03 1.03 0.99 0.92 0.88 0.87 0.91 0.94 0.90 0.84 0.72 0.64 0.64 0.68 0.72 0.70 0.65 0.74 0.79 0.74 0.81 0.92
0.20 0.39 0.61 1.08 1.55 1.22 0.89 0.65 0.53 0.37 0.35 0.39 0.51 0.52 0.43 0.53 0.55 0.62 0.68 0.57 0.43 0.55 0.75 0.78 1.00 1.00 1.03 1.00 0.99 0.97 0.89 0.78 0.78 0.77 0.77 0.75 0.76 0.69 0.62 0.62 0.66 0.68 0.65 0.67 0.76 0.80 0.81 0.80 0.85
0.31 0.48 0.73 1.13 1.05 0.67 0.57 0.46 0.37 0.35 0.41 0.50 0.59 0.61 0.61 0.63 0.52 0.59 0.59 0.47 0.45 0.51 0.63 0.79 0.91 0.87 0.92 0.88 0.87 0.89 0.87 0.80 0.73 0.69 0.73 0.72 0.69 0.66 0.62 0.63 0.65 0.68 0.69 0.69 0.73 0.83 0.87 0.85 0.85
0.36 0.55 0.66 0.77 0.56 0.31 0.25 0.26 0.28 0.39 0.57 0.79 0.80 0.78 0.73 0.57 0.48 0.49 0.54 0.47 0.42 0.39 0.43 0.65 0.85 0.81 0.89 0.82 0.77 0.79 0.79 0.79 0.73 0.71 0.73 0.78 0.79 0.78 0.68 0.61 0.64 0.71 0.76 0.76 0.79 0.89 0.92 0.85 0.85
0.30 0.51 0.73 0.62 0.34 0.25 0.19 0.20 0.31 0.45 0.62 0.80 0.85 0.92 0.96 0.73 0.49 0.48 0.49 0.52 0.45 0.36 0.35 0.49 0.78 0.76 0.79 0.77 0.74 0.72 0.73 0.77 0.71 0.72 0.69 0.76 0.81 0.78 0.73 0.71 0.72 0.71 0.76 0.77 0.82 0.89 0.92 0.93 0.95
0.38 0.53 0.55 0.42 0.24 0.19 0.21 0.24 0.32 0.44 0.62 0.78 1.06 1.18 1.16 0.95 0.78 0.67 0.56 0.68 0.57 0.43 0.35 0.44 0.73 0.81 0.79 0.77 0.73 0.70 0.69 0.70 0.69 0.68 0.66 0.71 0.76 0.77 0.78 0.80 0.82 0.75 0.77 0.81 0.82 0.84 0.84 0.90 1.00
0.31 0.37 0.33 0.26 0.20 0.18 0.20 0.24 0.32 0.48 0.63 0.87 1.16 1.32 1.22 1.12 0.93 0.80 0.75 0.83 0.88 0.73 0.60 0.53 0.62 0.72 0.75 0.81 0.80 0.72 0.70 0.70 0.69 0.72 0.72 0.69 0.71 0.73 0.74 0.86 0.88 0.82 0.83 0.85 0.88 0.87 0.89 0.95 1.05
0.17 0.22 0.19 0.15 0.14 0.15 0.18 0.22 0.34 0.57 0.74 0.95 1.15 1.29 1.41 1.11 0.92 1.01 1.21 1.37 1.47 1.34 1.13 0.86 0.70 0.82 0.76 0.80 0.83 0.81 0.68 0.67 0.71 0.78 0.76 0.77 0.85 0.89 0.97 0.95 0.92 0.94 1.02 1.05 1.08 1.04 1.01 1.13 1.22
0.12 0.18 0.14 0.07 0.07 0.14 0.17 0.21 0.30 0.41 0.61 0.85 1.03 1.09 1.01 0.97 1.13 1.41 1.79 1.82 1.66 1.69 1.52 1.35 1.14 0.92 0.94 0.92 0.82 0.94 0.85 0.84 0.97 1.15 1.13 1.18 1.48 1.45 1.53 1.24 1.17 1.26 1.44 1.50 1.54 1.52 1.45 1.40 1.36
0.08 0.11 0.07 0.03 0.02 0.06 0.12 0.19 0.29 0.44 0.86 1.43 1.42 1.09 0.88 1.07 1.33 1.56 1.88 2.10 1.70 1.68 1.50 1.50 1.44 1.16 1.10 1.07 1.28 1.62 1.43 1.42 1.49 1.76 1.65 1.92 2.03 1.91 1.41 1.47 1.64 1.75 2.09 2.22 2.26 2.29 2.07 1.79 1.66
0.06 0.04 0.03 0.02 0.02 0.02 0.05 0.13 0.23 0.48 0.95 1.64 1.80 1.35 1.17 1.28 1.65 1.68 1.93 2.14 2.06 1.88 1.74 1.47 1.58 1.46 1.48 1.65 1.72 1.87 1.95 1.91 1.88 2.01 2.04 2.28 2.09 1.78 1.69 2.01 2.37 2.52 2.68 2.86 2.91 2.82 2.36 2.31 2.49
0.04 0.03 0.02 0.01 0.02 0.02 0.10 0.18 0.28 0.37 0.80 1.15 1.12 1.01 1.18 1.39 1.73 1.96 2.02 2.26 2.29 2.15 2.04 1.92 1.90 1.92 1.94 1.98 1.92 1.79 1.62 1.63 1.76 1.94 1.97 2.18 2.28 2.29 2.27 2.44 2.55 2.76 3.10 3.48 3.42 3.36 3.11 3.11 2.93
0.02 0.05 0.05 0.03 0.04 0.05 0.11 0.15 0.27 0.43 0.55 0.67 0.64 0.84 1.27 1.55 1.94 2.28 2.64 2.86 2.91 2.84 2.69 2.68 2.74 2.55 2.35 2.30 1.97 1.60 1.51 1.41 1.46 1.60 1.75 1.79 2.11 2.39 2.43 2.29 2.32 2.30 2.52 2.94 3.48 3.44 3.59 3.56 3.21
0.04 0.05 0.05 0.04 0.04 0.06 0.10 0.15 0.30 0.51 0.52 0.63 0.78 1.02 1.42 1.87 2.25 2.50 3.25 3.65 3.89 3.82 3.64 3.44 3.49 3.03 2.68 2.44 2.08 1.81 1.55 1.56 1.48 1.39 1.44 1.66 1.91 2.19 2.17 2.13 2.31 2.37 2.31 2.47 2.91 3.10 3.44 3.42 3.07
0.09 0.10 0.09 0.08 0.06 0.07 0.12 0.29 0.46 0.57 0.76 0.80 0.98 1.19 1.53 2.12 2.59 3.05 3.58 4.32 4.76 4.93 4.53 3.94 3.66 3.33 3.06 2.78 2.29 1.90 1.72 1.49 1.52 1.50 1.42 1.49 1.63 1.87 1.88 1.97 1.98 2.05 1.98 2.06 2.26 2.50 2.78 2.75 2.61
0.12 0.19 0.26 0.14 0.09 0.09 0.15 0.54 0.71 0.60 0.89 1.22 1.17 1.44 1.84 2.37 2.84 3.51 4.20 5.03 5.56 5.72 5.13 4.41 3.70 3.71 3.56 3.25 2.58 2.10 1.81 1.66 1.59 1.53 1.40 1.31 1.35 1.35 1.48 1.53 1.53 1.54 1.42 1.55 1.87 1.96 2.20 2.42 2.50
0.09 0.15 0.22 0.22 0.14 0.12 0.20 0.62 0.79 0.60 0.76 1.05 1.29 1.54 1.96 2.33 2.68 3.32 3.97 4.78 5.38 5.89 5.69 5.05 4.85 4.61 3.94 3.20 2.59 2.18 1.89 1.76 1.59 1.51 1.44 1.35 1.25 1.21 1.31 1.42 1.50 1.27 1.25 1.31 1.23 1.59 1.80 2.05 2.18
0.10 0.10 0.16 0.27 0.20 0.20 0.28 0.48 0.75 0.79 0.96 1.17 1.31 1.46 1.74 1.93 2.27 2.78 3.30 3.74 4.34 4.83 4.74 4.68 4.78 4.31 3.69 3.06 2.56 2.26 2.00 1.71 1.53 1.48 1.45 1.35 1.29 1.27 1.40 1.28 1.29 1.17 1.33 1.48 1.55 1.80 1.74 1.68 1.78
0.08 0.09 0.13 0.21 0.20 0.26 0.39 0.51 0.73 0.89 1.11 1.27 1.30 1.27 1.34 1.55 1.86 2.16 2.54 2.89 3.10 3.25 3.36 3.68 3.90 3.61 3.12 2.70 2.19 1.99 1.93 1.74 1.54 1.41 1.30 1.35 1.28 1.40 1.51 1.29 1.57 1.41 1.38 1.45 1.48 1.61 1.61 1.46 1.42
0.07 0.09 0.15 0.20 0.17 0.23 0.38 0.66 0.83 0.91 0.93 1.01 1.11 1.07 1.09 1.30 1.40 1.49 1.71 2.04 2.13 2.34 2.66 3.03 3.28 3.12 2.59 2.36 2.14 2.00 1.93 1.80 1.74 1.59 1.52 1.35 1.31 1.36 1.28 1.50 1.36 1.40 1.52 1.56 1.63 1.72 1.73 1.54 1.47
0.07 0.08 0.11 0.15 0.15 0.23 0.39 0.91 1.02 0.90 0.81 0.71 0.83 0.88 0.86 0.94 1.05 1.04 1.12 1.29 1.59 2.06 2.21 2.27 2.54 2.74 2.49 2.36 2.27 2.16 2.07 1.88 1.92 1.83 1.66 1.34 1.22 1.25 1.30 1.31 1.33 1.52 1.35 1.61 1.80 1.74 1.80 1.78 1.62
0.06 0.07 0.06 0.08 0.11 0.35 0.47 0.93 1.05 0.92 0.90 0.72 0.69 0.68 0.58 0.56 0.73 0.87 0.89 0.95 1.14 1.47 1.75 2.00 2.26 2.44 2.38 2.26 2.05 1.87 1.69 1.60 1.60 1.63 1.64 1.50 1.37 1.21 1.21 1.21 1.37 1.53 1.36 1.70 1.41 1.46 1.70 1.84 1.68
0.03 0.03 0.05 0.08 0.15 0.33 0.45 0.79 1.01 0.84 0.98 0.74 0.47 0.35 0.31 0.32 0.43 0.60 0.71 0.80 0.84 1.04 1.44 1.86 2.21 2.44 2.33 2.04 1.87 1.86 1.75 1.70 1.63 1.56 1.74 1.62 1.54 1.34 1.16 1.23 1.37 1.43 1.35 1.46 1.49 1.73 1.64 1.61 1.60
0.02 0.04 0.12 0.21 0.34 0.66 0.65 0.66 0.94 0.72 0.56 0.42 0.31 0.23 0.24 0.27 0.32 0.41 0.46 0.56 0.70 0.85 1.11 1.45 1.78 2.02 2.04 1.88 1.78 1.82 1.85 1.82 1.68 1.49 1.49 1.41 1.42 1.37 1.28 1.34 1.40 1.35 1.30 1.37 1.40 1.53 1.55 1.64 1.72
0.02 0.04 0.20 0.42 0.69 0.87 0.52 0.68 1.03 0.61 0.44 0.32 0.26 0.24 0.23 0.21 0.28 0.40 0.44 0.46 0.54 0.64 0.81 1.06 1.33 1.49 1.69 1.79 1.78 1.73 1.83 1.83 1.64 1.46 1.41 1.43 1.31 1.24 1.25 1.35 1.49 1.42 1.43 1.41 1.50 1.51 1.46 1.54 1.61
0.03 0.04 0.09 0.17 0.29 0.45 0.51 1.13 0.99 0.44 0.29 0.25 0.22 0.23 0.20 0.20 0.23 0.37 0.47 0.46 0.46 0.50 0.67 0.81 1.00 1.22 1.45 1.62 1.67 1.65 1.58 1.46 1.45 1.54 1.44 1.39 1.37 1.32 1.24 1.33 1.34 1.36 1.41 1.40 1.69 1.52 1.41 1.43 1.41
0.03 0.04 0.06 0.06 0.09 0.29 0.62 0.81 0.54 0.27 0.25 0.28 0.25 0.26 0.24 0.27 0.33 0.40 0.50 0.52 0.41 0.42 0.52 0.58 0.78 0.96 1.11 1.33 1.45 1.39 1.42 1.33 1.32 1.37 1.35 1.29 1.40 1.41 1.33 1.25 1.24 1.30 1.40 1.51 1.62 1.52 1.51 1.55 1.39
0.03 0.03 0.04 0.04 0.06 0.20 0.47 0.72 0.74 0.47 0.36 0.32 0.31 0.33 0.31 0.35 0.46 0.49 0.47 0.50 0.43 0.41 0.48 0.57 0.71 0.82 0.90 1.08 1.15 1.08 1.28 1.29 1.40 1.37 1.28 1.21 1.21 1.25 1.29 1.28 1.22 1.28 1.35 1.47 1.58 1.60 1.72 1.79 1.63
0.05 0.04 0.03 0.04 0.05 0.10 0.32 0.51 0.56 0.52 0.47 0.35 0.32 0.37 0.42 0.41 0.52 0.51 0.46 0.49 0.45 0.45 0.50 0.56 0.69 0.77 0.83 0.96 1.00 1.06 1.15 1.19 1.25 1.30 1.31 1.28 1.22 1.21 1.25 1.29 1.31 1.32 1.36 1.47 1.55 1.50 1.73 1.86 1.88
0.07 0.08 0.08 0.07 0.05 0.07 0.14 0.27 0.29 0.35 0.41 0.35 0.34 0.42 0.47 0.35 0.37 0.44 0.46 0.52 0.42 0.43 0.48 0.52 0.59 0.65 0.70 0.86 1.01 1.06 1.17 1.19 1.17 1.22 1.41 1.41 1.36 1.35 1.37 1.41 1.49 1.46 1.44 1.51 1.51 1.42 1.51 1.70 1.89